This is the latest recevied weather packets stored in our database for station/object BMCB-34. If no packets are shown the sender has not sent any weather packets the latest 10 day(s).
| Time | Temp. | Humidity | Pressure | Rain* | Wind** | Luminosity | Snow |
|---|---|---|---|---|---|---|---|
| 1778062224 | 12.78° C | 88% | 1000.7 hPa | 0 mm | - | 244 W/m² | - |
| 1778059838 | 12.78° C | 92% | 1000.6 hPa | 0.51 mm | - | 246 W/m² | - |
| 1778059240 | 12.78° C | 92% | 1000.5 hPa | 0.51 mm | - | 210 W/m² | - |
| 1778059233 | 12.78° C | 92% | 1000.4 hPa | 0.51 mm | - | 238 W/m² | - |
| 1778057430 | 12.78° C | 90% | 1000.2 hPa | 0 mm | - | 402 W/m² | - |
| 1778056823 | 12.78° C | 89% | 1000.2 hPa | 0 mm | - | 308 W/m² | - |
| 1778053239 | 12.22° C | 93% | 1000.1 hPa | 0 mm | - | 250 W/m² | - |
| 1778052631 | 11.67° C | 94% | 1000.1 hPa | 0 mm | - | 232 W/m² | - |
| 1778051453 | 11.67° C | 94% | 1000.1 hPa | 0 mm | - | 202 W/m² | - |
| 1778049038 | 11.11° C | 94% | 1000.1 hPa | 0 mm | - | 124 W/m² | - |
| 1778049030 | 11.11° C | 95% | 1000.1 hPa | 0 mm | - | 66 W/m² | - |
| 1778048425 | 11.11° C | 95% | 1000.1 hPa | 0 mm | - | 72 W/m² | - |
| 1778044238 | 10.56° C | - | - | 0 mm | - | - | - |
| 1778043630 | 10.56° C | - | - | 0 mm | - | - | - |
| 1778041837 | 10.56° C | - | - | 0 mm | - | - | - |
| 1778041230 | 10.56° C | 93% | 1000 hPa | 0 mm | - | 0 W/m² | - |
| 1778038234 | 10.56° C | 94% | 1000.4 hPa | 0 mm | - | 0 W/m² | - |
| 1778037629 | 10.56° C | 95% | 1000.5 hPa | 0 mm | - | 0 W/m² | - |
| 1778037035 | 10.56° C | 95% | 1000.5 hPa | 0 mm | - | 0 W/m² | - |
| 1778036436 | 10.56° C | 95% | 1000.5 hPa | 0 mm | - | 0 W/m² | - |
| 1778033434 | 11.11° C | 96% | 1000.3 hPa | 0 mm | - | 0 W/m² | - |
| 1778031633 | 11.67° C | 96% | 1000.4 hPa | 0 mm | - | 0 W/m² | - |
| 1778025636 | 10.56° C | 98% | 1001.4 hPa | 0 mm | - | 0 W/m² | - |
| 1778020838 | 10.56° C | 97% | 1001.5 hPa | 0 mm | - | 0 W/m² | - |
| 1778017854 | 11.11° C | 97% | 1001.7 hPa | 0 mm | - | 0 W/m² | - |
* Rain latest hour (hover to see other rain measurements)
** Current wind speed in m/s (hover to see current wind gust speed)